Weather History for Joplin, MO

Change the Weather History Date:

Tuesday, May 20, 2014

  Actual Average Record
Temperature  
Mean Temperature 77 °F 68 °F  
Max Temperature 86 °F 79 °F 92 °F (1956)
Min Temperature 68 °F 57 °F 40 °F (1981)
Degree Days  
Heating Degree Days 0 2  
Month to date heating degree days 103 55  
Since 1 July heating degree days 4881 4058  
Cooling Degree Days 12 4  
Month to date cooling degree days 97 64  
Year to date cooling degree days 120 118  
Growing Degree Days 27 (Base 50)    
Moisture  
Dew Point 61 °F    
Average Humidity 58    
Maximum Humidity 73    
Minimum Humidity 43    
Precipitation  
Precipitation 0.00 in 0.18 in 2.09 in (2011)
Month to date precipitation 1.63 3.77  
Year to date precipitation 5.61 16.01  
Sea Level Pressure  
Sea Level Pressure 29.85 in    
Wind  
Wind Speed 20 mph (SSW)    
Max Wind Speed 30 mph    
Max Gust Speed 38 mph    
Visibility 10 miles    
Events      
T = Trace of Precipitation, MM = Missing Value Source: NWS Daily Summary

Daily Weather History Graph

Daily Weather History Graph

Search for Another Location

Airport:

Trip Planner

Search our weather history database for the weather conditions in past years. The results will help you decide how hot, cold, wet, or windy it might be!

Date:

Astronomy

May. 20, 2014 Rise Set
Actual Time 6:05 AM CDT 8:23 PM CDT
Civil Twilight 5:36 AM CDT 8:53 PM CDT
Nautical Twilight 5:00 AM CDT 9:29 PM CDT
Astronomical Twilight 4:20 AM CDT 10:09 PM CDT
Moon 12:57 AM CDT (5/20) 12:09 PM CDT (5/20)
Length of Visible Light 15h 16m
Length of Day
14h 17m
Waning Gibbous, 60% of the Moon is Illuminated
May 20
Waning Gibbous
May 21
Last Quarter
May 28
New
Jun 5
First Quarter
Jun 12
Full

Hourly Weather History & Observations

Time (CDT) Temp. Heat Index Dew Point Humidity Pressure Visibility Wind Dir Wind Speed Gust Speed Precip Events Conditions
12:53 AM 69.8 °F - 59.0 °F 68% 29.86 in 10.0 mi SSW 17.3 mph 26.5 mph N/A   Clear
1:53 AM 69.1 °F - 60.1 °F 73% 29.83 in 10.0 mi South 18.4 mph 28.8 mph N/A   Clear
2:53 AM 70.0 °F - 60.1 °F 71% 29.82 in 10.0 mi South 18.4 mph 31.1 mph N/A   Clear
3:53 AM 69.8 °F - 59.0 °F 68% 29.85 in 10.0 mi SSW 20.7 mph 33.4 mph N/A   Clear
4:53 AM 69.1 °F - 59.0 °F 70% 29.83 in 10.0 mi SSW 20.7 mph - N/A   Clear
5:53 AM 68.0 °F - 59.0 °F 73% 29.84 in 10.0 mi South 20.7 mph 25.3 mph N/A   Clear
6:53 AM 68.0 °F - 59.0 °F 73% 29.88 in 10.0 mi South 17.3 mph 25.3 mph N/A   Clear
7:53 AM 70.0 °F - 60.1 °F 71% 29.86 in 10.0 mi South 18.4 mph 27.6 mph N/A   Clear
8:53 AM 72.0 °F - 60.1 °F 66% 29.87 in 10.0 mi SSW 23.0 mph 32.2 mph N/A   Clear
9:53 AM 75.0 °F - 60.1 °F 60% 29.87 in 10.0 mi SSW 27.6 mph 38.0 mph N/A   Clear
10:53 AM 77.0 °F - 61.0 °F 58% 29.86 in 10.0 mi SSW 26.5 mph 33.4 mph N/A   Clear
11:53 AM 80.1 °F 81.5 °F 63.0 °F 56% 29.86 in 10.0 mi SSW 21.9 mph 31.1 mph N/A   Clear
12:53 PM 81.0 °F 82.2 °F 63.0 °F 54% 29.86 in 10.0 mi South 23.0 mph 28.8 mph N/A   Clear
1:53 PM 84.0 °F 85.8 °F 64.9 °F 53% 29.86 in 10.0 mi SSW 18.4 mph - N/A   Clear
2:53 PM 84.9 °F 85.9 °F 63.0 °F 48% 29.84 in 10.0 mi SSW 19.6 mph 28.8 mph N/A   Clear
3:53 PM 86.0 °F 86.6 °F 62.6 °F 45% 29.86 in 10.0 mi South 23.0 mph 32.2 mph N/A   Clear
4:53 PM 84.0 °F 83.8 °F 59.0 °F 43% 29.83 in 10.0 mi SSW 23.0 mph 31.1 mph N/A   Clear
5:53 PM 82.9 °F 82.8 °F 59.0 °F 44% 29.83 in 10.0 mi South 21.9 mph 29.9 mph N/A   Clear
6:53 PM 81.0 °F 81.3 °F 59.0 °F 47% 29.83 in 10.0 mi SSW 15.0 mph 26.5 mph N/A   Clear
7:53 PM 78.1 °F - 60.1 °F 54% 29.85 in 10.0 mi SSW 11.5 mph - N/A   Clear
8:53 PM 75.9 °F - 61.0 °F 60% 29.85 in 10.0 mi South 17.3 mph 24.2 mph N/A   Clear
9:53 PM 73.9 °F - 62.1 °F 66% 29.87 in 10.0 mi South 16.1 mph - N/A   Clear
10:53 PM 73.9 °F - 62.1 °F 66% 29.88 in 10.0 mi South 16.1 mph 24.2 mph N/A   Clear
11:53 PM 73.0 °F - 62.1 °F 68% 29.88 in 10.0 mi South 16.1 mph 25.3 mph N/A   Clear